Home > Weather > Stans > Past weeks

Flag for Switzerland Past Weather in Stans, Nidwalden, Switzerland — Yesterday and Last 2 Weeks

Now
67 °F

Mild.


Feels Like: 67 °F
Forecast: 57 / 87 °F
Wind: 1 mph from Northeast

Location: Giswil

Current Time: Jul 29, 2016 at 9:52:50 AM

Latest Report: Jul 29, 2016 at 9:00 AM


Visibility: N/A

Pressure: 30.05 "Hg

Humidity: 78%

Dew Point: 60 °F

Location of StansLocation

Past Weather in Stans — Graph

°F

Stans Temperature Yesterday

Maximum temperature yesterday: 77 °F (at 3:00 PM)
Minimum temperature yesterday: 54 °F (at 6:00 AM)
Average temperature yesterday: 65 °F

High & Low Weather Summary for the Past Weeks

 TemperatureHumidityPressure
High88 °F (Jul 20, 5:00 PM)100% (Jul 16, 5:00 AM)30.39 "Hg (Jul 16, 5:00 AM)
Low44 °F (Jul 16, 6:00 AM)38% (Jul 20, 4:00 PM)29.89 "Hg (Jul 20, 7:00 PM)
Average66 °F80%30.11 "Hg
* Reported Jul 14 8:00 AM — Jul 29 8:00 AM, Stans, Weather by CustomWeather, © 2016

Note: Actual official high and low records may vary slightly from our data, if they occured in-between our weather recording intervals... More about our weather records

Advertising

Stans Weather History for the Previous 24 Hours

Scroll right to see more
 ConditionsComfort  
Time TempWeatherWind HumidityBarometerVisibility
8:00 AM
Fri, Jul 29
64 °FMild.1 mph92%30.06 "HgN/A
7:00 AM61 °FCool.2 mph98%30.06 "HgN/A
6:00 AM61 °FCool.2 mph97%30.06 "HgN/A
5:00 AM61 °FCool.No wind97%30.06 "HgN/A
4:00 AM61 °FCool.1 mph96%30.06 "HgN/A
2:00 AM62 °FCool.1 mph98%30.06 "HgN/A
1:00 AM63 °FMild.1 mph97%30.06 "HgN/A
12:00 AM64 °FMild.1 mph94%30.06 "HgN/A
11:00 PM
Thu, Jul 28
67 °FMild.1 mph91%30.04 "HgN/A
10:00 PM67 °FMild.2 mph89%30.04 "HgN/A
9:00 PM69 °FMild.1 mph87%30.02 "HgN/A
8:00 PM73 °FMild.2 mph72%30.00 "HgN/A
7:00 PM73 °FMild.1 mph77%29.99 "HgN/A
6:00 PM75 °FMild.2 mph66%29.98 "HgN/A
5:00 PM76 °FMild.1 mph57%29.99 "HgN/A
4:00 PM75 °FMild.1 mph58%29.99 "HgN/A
3:00 PM77 °FWarm.3 mph56%30.00 "HgN/A
2:00 PM75 °FMild.2 mph57%30.02 "HgN/A
1:00 PM74 °FMild.1 mph56%30.03 "HgN/A
12:00 PM71 °FMild.2 mph58%30.06 "HgN/A
11:00 AM66 °FMild.3 mph75%30.08 "HgN/A
10:00 AM64 °FMild.1 mph82%30.09 "HgN/A
9:00 AM62 °FCool.1 mph89%30.09 "HgN/A
Weather by CustomWeather, © 2016

See weather overviewHow to use our weather pages